ONEWEB-0201 (48241 NORAD) Tracking and Keplerian Element Data

This shows tracking and keplerian element data for the satellite.

Feedback or suggestion? Click here.




ElementValue
Catalog48241
NameONEWEB-0201
Epoch Orbit191
Epoch Day173.83334491
Epoch Year2021
RAAN294.0895
Inclination87.6477
Eccentricity0.0012899
Argument of Perigee54.7964
Mean Anonmoly320.3809
Mean Motion14.55818039
Decay Rate-0.0095119
L11 48241U 21031AH 21173.83334491 -.00951190 00000-0 -23142+0 0 9993
L22 48241 87.6477 294.0895 0012899 54.7964 320.3809 14.55818039 1911

Live tracking and technical data element details for ONEWEB-0201 (NORAD 48241). ONEWEB-0201 can be tracked NOW for your location showing map with azimuth and elevation plus other details from your city location.

Track the satellite on the map from your city or location and see movement details for azimuth, elevation, latitude, longitude, range, height, and movement on the map or in text.







IsCatalogInMostPopularTable: catalog: 48241, numindb: 22
Update: records affected: 1



GetName: 48241 ONEWEB-0201

Hit Count: updated at: Thu, 24 Jun 2021 03:00:26 GMT